RESOURCESAT-2

Last updated on Tue Oct 15 2024 00:02:24 GMT+0000 (Coordinated Universal Time)

1 37387U 11015A 24288.52393394 .00000524 00000+0 25807-3 0 9993 2 37387 98.5644 350.8884 0005235 124.0084 236.1592 14.21706000699414
UTC large
Height (km)
Speed (km/s)
/
Latitude / Longitude
Inclination (degrees)
Orbital Period (minutes)
Azimuth
Elevation
Range (km)
Doppler Factor

Next 0 passes for location: London (51.5072 / 0.1276)

Sorry there are no passes over London.